Meteo Giornale » Osservazioni meteo Italia » Treviso-Istrana

ore: 18:55 - Osservazioni Meteo Treviso-Istrana
Lat. 45° 41' N Lon. 12° 6' E Alt. 45 metri s.l.m.

coperto_temporali Europe/Rome

28 °C

Temporale

Temp. 24 Ore

22 °C

31 °C

Sud/Sud-Est

13 Km/h

Dew point 20 °C

Umidità 61 %

Visibilità  10 Km

Il sole sorge alle ore 05:20

Il sole tramonta alle ore 21:06

Data e Ora Cielo e Fenomeni T °C DP °C Um. % Pres. hPa Vis. km Vento km/h
Oggi h: 18:55 coperto_temporali Temporale 28 20 61 1011 10 S/SE 13
Oggi h: 16:55 poco_nuvoloso Poco Nuvoloso 31 20 52 1012 10 S 13
Oggi h: 15:55 nuvoloso Nuvoloso 31 20 52 1012 10 O 9.3
Oggi h: 12:55 poco_nuvoloso Poco Nuvoloso 30 21 58 1015 10 SO 13
Oggi h: 11:55 sereno Sereno 30 23 66 1015 10 SO 13
Oggi h: 10:55 sereno Sereno 29 22 66 1016 10 O 7.4
Oggi h: 09:55 sereno Sereno 28 23 74 1016 10 N 3.7
Oggi h: 08:55 sereno Sereno 26 22 78 1016 10 N 5.5
Oggi h: 07:55 sereno Sereno 25 22 83 1016 10 N 1.8
Oggi h: 06:55 sereno Sereno 23 20 83 1016 10 N 1.8
Oggi h: 05:55 sereno Sereno 22 20 88 1016 10 N 1.8
Oggi h: 04:55 sereno Sereno 22 19 83 1017 10 N 3.7
Oggi h: 03:55 sereno Sereno 22 19 83 1017 10 N 3.7
Oggi h: 02:55 sereno Sereno 23 19 78 1017 10 N 1.8
Oggi h: 01:55 sereno Sereno 23 19 78 1017 10 N 5.5
Oggi h: 00:55 sereno Sereno 24 19 73 1018 10 N 1.8
Ieri h: 23:55 sereno Sereno 25 18 65 1018 10 N 1.8
Ieri h: 22:55 sereno Sereno 26 18 61 1018 10 N 5.5
Ieri h: 21:55 sereno Sereno 26 17 57 1018 10 N 3.7
Ieri h: 20:55 sereno Sereno 29 18 51 1017 10 N 5.5
Ieri h: 19:55 sereno Sereno 29 18 51 1018 10 S/SO 9.3